timestamp,wind_dir_avg,wind_spd_avg,wind_spd_max_dir,wind_spd_gust,battery_voltage,lat,long
2023-06-20 00:04:01+00:00,41.0,7.16,43.0,8.6,12.41,47.59359,-54.27349
2023-06-20 00:14:01+00:00,35.0,7.98,32.0,8.73,12.41,47.59359,-54.27349
2023-06-20 00:24:01+00:00,32.0,7.59,33.0,8.39,12.41,47.59359,-54.27349
2023-06-20 00:34:01+00:00,33.0,8.24,34.0,8.93,12.41,47.59359,-54.27349
2023-06-20 00:44:01+00:00,31.0,8.62,31.0,9.29,12.41,47.59359,-54.27349
2023-06-20 00:54:01+00:00,33.0,8.16,35.0,8.84,12.41,47.59359,-54.27349
2023-06-20 01:04:01+00:00,33.0,8.4,33.0,9.13,12.41,47.59359,-54.27349
2023-06-20 01:14:00+00:00,31.0,8.91,32.0,9.65,12.33,47.59359,-54.27349
2023-06-20 01:24:00+00:00,33.0,8.65,41.0,9.63,12.33,47.59359,-54.27349
2023-06-20 01:34:00+00:00,33.0,8.72,32.0,9.37,12.33,47.59359,-54.27349
2023-06-20 01:44:00+00:00,35.0,8.47,33.0,8.84,12.33,47.59359,-54.27349
2023-06-20 01:54:00+00:00,35.0,8.16,36.0,8.76,12.33,47.59359,-54.27349
2023-06-20 02:04:00+00:00,34.0,7.34,35.0,7.98,12.33,47.59359,-54.27349
2023-06-20 02:14:00+00:00,30.0,5.86,31.0,6.23,12.33,47.59359,-54.27349
2023-06-20 02:24:00+00:00,34.0,6.06,35.0,6.87,12.33,47.59359,-54.27349
2023-06-20 02:34:00+00:00,32.0,6.39,32.0,7.2,12.33,47.59359,-54.27349
2023-06-20 02:44:00+00:00,29.0,6.3,32.0,6.9,12.33,47.59359,-54.27349
2023-06-20 02:54:00+00:00,30.0,6.88,33.0,7.46,12.33,47.59359,-54.27349
2023-06-20 03:04:00+00:00,31.0,5.85,26.0,6.23,12.33,47.59359,-54.27349
2023-06-20 03:14:00+00:00,32.0,5.51,31.0,6.07,12.33,47.59359,-54.27349
2023-06-20 03:24:00+00:00,38.0,6.71,43.0,7.3,12.33,47.59359,-54.27349
2023-06-20 03:34:00+00:00,37.0,7.06,38.0,7.85,12.33,47.59359,-54.27349
2023-06-20 03:44:00+00:00,35.0,7.27,37.0,7.94,12.33,47.59359,-54.27349
2023-06-20 03:54:00+00:00,40.0,7.4,39.0,8.14,12.33,47.59359,-54.27349
2023-06-20 04:04:00+00:00,38.0,8.36,44.0,9.44,12.33,47.59359,-54.27349
2023-06-20 04:14:00+00:00,34.0,8.59,33.0,9.26,12.25,47.59359,-54.27349
2023-06-20 04:24:00+00:00,37.0,8.04,37.0,8.88,12.25,47.59359,-54.27349
2023-06-20 04:34:00+00:00,44.0,7.29,45.0,8.31,12.25,47.59359,-54.27349
2023-06-20 04:44:00+00:00,48.0,6.69,50.0,7.33,12.25,47.59359,-54.27349
2023-06-20 04:54:00+00:00,50.0,6.22,49.0,6.83,12.25,47.59359,-54.27349
2023-06-20 05:04:00+00:00,51.0,5.67,54.0,6.35,12.25,47.59359,-54.27349
2023-06-20 05:14:01+00:00,47.0,5.34,47.0,5.84,12.25,47.59359,-54.27349
2023-06-20 05:24:01+00:00,43.0,5.38,47.0,5.82,12.25,47.59359,-54.27349
2023-06-20 05:34:01+00:00,41.0,5.44,44.0,6.01,12.25,47.59359,-54.27349
2023-06-20 05:44:01+00:00,46.0,4.84,47.0,5.35,12.25,47.59359,-54.27349
2023-06-20 05:54:01+00:00,51.0,4.37,56.0,5.93,12.25,47.59359,-54.27349
2023-06-20 06:04:01+00:00,52.0,4.71,50.0,5.41,12.25,47.59359,-54.27349
2023-06-20 06:14:01+00:00,51.0,4.33,63.0,6.04,12.17,47.59359,-54.27349
2023-06-20 06:24:01+00:00,41.0,4.03,55.0,5.13,12.17,47.59359,-54.27349
2023-06-20 06:34:01+00:00,20.0,5.79,19.0,6.44,12.17,47.59359,-54.27349
2023-06-20 06:44:01+00:00,17.0,6.88,19.0,7.85,12.17,47.59359,-54.27349
2023-06-20 06:54:01+00:00,14.0,6.94,13.0,7.61,12.17,47.59359,-54.27349
2023-06-20 07:04:01+00:00,13.0,5.85,11.0,6.84,12.17,47.59359,-54.27349
2023-06-20 07:14:00+00:00,8.0,6.11,22.0,7.55,12.17,47.59359,-54.27349
2023-06-20 07:24:00+00:00,20.0,7.6,21.0,8.26,12.17,47.59359,-54.27349
2023-06-20 07:34:00+00:00,17.0,5.08,25.0,6.06,12.17,47.59359,-54.27349
2023-06-20 07:44:00+00:00,17.0,5.82,22.0,7.05,12.17,47.59359,-54.27349
2023-06-20 07:54:00+00:00,9.0,4.75,13.0,5.42,12.17,47.59359,-54.27349
2023-06-20 08:04:00+00:00,6.0,5.75,7.0,6.55,12.17,47.59359,-54.27349
2023-06-20 08:14:01+00:00,1.0,5.97,0.0,6.58,12.17,47.59359,-54.27349
2023-06-20 08:24:01+00:00,10.0,6.17,13.0,7.4,12.17,47.59359,-54.27349
2023-06-20 08:34:01+00:00,9.0,5.47,26.0,6.94,12.17,47.59359,-54.27349
2023-06-20 08:44:01+00:00,4.0,5.28,4.0,6.8,12.17,47.59359,-54.27349
2023-06-20 08:54:01+00:00,17.0,5.45,31.0,6.79,12.17,47.59359,-54.27349
2023-06-20 09:04:01+00:00,17.0,5.14,29.0,6.78,12.17,47.59359,-54.27349
2023-06-20 09:14:01+00:00,31.0,7.09,32.0,7.93,12.17,47.59359,-54.27349
2023-06-20 09:24:01+00:00,30.0,6.69,29.0,7.79,12.17,47.59359,-54.27349
2023-06-20 09:34:01+00:00,32.0,6.87,33.0,7.82,12.17,47.59359,-54.27349
2023-06-20 09:44:01+00:00,30.0,6.87,35.0,7.64,12.17,47.59359,-54.27349
2023-06-20 09:54:01+00:00,28.0,4.63,44.0,5.88,12.17,47.59359,-54.27349
2023-06-20 10:04:01+00:00,30.0,5.29,43.0,6.42,12.17,47.59359,-54.27349
2023-06-20 10:14:01+00:00,32.0,6.43,42.0,7.2,12.49,47.59359,-54.27349
2023-06-20 10:24:01+00:00,32.0,6.48,49.0,7.68,12.49,47.59359,-54.27349
2023-06-20 10:34:01+00:00,22.0,6.98,22.0,7.92,12.49,47.59359,-54.27349
2023-06-20 10:44:01+00:00,27.0,6.6,31.0,7.44,12.49,47.59359,-54.27349
2023-06-20 10:54:01+00:00,21.0,4.86,41.0,6.5,12.49,47.59359,-54.27349
2023-06-20 11:04:01+00:00,16.0,4.92,28.0,5.68,12.49,47.59359,-54.27349
2023-06-20 11:14:01+00:00,15.0,5.12,27.0,5.55,12.97,47.59359,-54.27349
2023-06-20 11:24:01+00:00,13.0,4.64,17.0,5.19,12.97,47.59359,-54.27349
2023-06-20 11:34:01+00:00,12.0,4.88,17.0,5.3,12.97,47.59359,-54.27349
2023-06-20 11:44:01+00:00,13.0,5.43,25.0,5.9,12.97,47.59359,-54.27349
2023-06-20 11:54:01+00:00,8.0,5.43,12.0,6.49,12.97,47.59359,-54.27349
2023-06-20 12:04:01+00:00,12.0,5.47,13.0,6.23,12.97,47.59359,-54.27349
2023-06-20 12:14:01+00:00,11.0,4.78,12.0,5.85,13.13,47.59359,-54.27349
2023-06-20 12:24:01+00:00,9.0,4.73,11.0,5.63,13.13,47.59359,-54.27349
2023-06-20 12:34:01+00:00,13.0,6.69,19.0,7.56,13.13,47.59359,-54.27349
2023-06-20 12:44:01+00:00,20.0,5.73,23.0,6.56,13.13,47.59359,-54.27349
2023-06-20 12:54:01+00:00,18.0,6.34,26.0,7.05,13.13,47.59359,-54.27349
2023-06-20 13:04:01+00:00,18.0,5.13,20.0,6.12,13.13,47.59359,-54.27349
2023-06-20 13:14:00+00:00,23.0,7.64,27.0,8.54,13.44,47.59359,-54.27349
2023-06-20 13:24:00+00:00,20.0,7.96,21.0,9.01,13.44,47.59359,-54.27349
2023-06-20 13:34:00+00:00,20.0,7.46,14.0,8.75,13.44,47.59359,-54.27349
2023-06-20 13:44:00+00:00,16.0,6.86,13.0,7.88,13.44,47.59359,-54.27349
2023-06-20 13:54:00+00:00,12.0,5.69,12.0,6.74,13.44,47.59359,-54.27349
2023-06-20 14:04:00+00:00,16.0,7.33,16.0,8.27,13.44,47.59359,-54.27349
2023-06-20 14:14:01+00:00,18.0,6.58,19.0,7.17,13.53,47.59359,-54.27349
2023-06-20 14:24:01+00:00,22.0,6.39,16.0,6.89,13.53,47.59359,-54.27349
2023-06-20 14:34:01+00:00,32.0,7.76,31.0,8.65,13.53,47.59359,-54.27349
2023-06-20 14:44:01+00:00,33.0,8.21,33.0,8.72,13.53,47.59359,-54.27349
2023-06-20 14:54:01+00:00,40.0,6.61,38.0,7.46,13.53,47.59359,-54.27349
2023-06-20 15:04:01+00:00,32.0,6.38,28.0,7.27,13.53,47.59359,-54.27349
2023-06-20 15:14:01+00:00,29.0,6.59,29.0,7.34,13.6,47.59359,-54.27349
2023-06-20 15:24:01+00:00,31.0,7.86,32.0,8.67,13.6,47.59359,-54.27349
2023-06-20 15:34:01+00:00,25.0,6.13,26.0,7.11,13.6,47.59359,-54.27349
2023-06-20 15:44:01+00:00,29.0,7.92,30.0,9.61,13.6,47.59359,-54.27349
2023-06-20 15:54:01+00:00,37.0,10.12,34.0,11.98,13.6,47.59359,-54.27349
2023-06-20 16:04:01+00:00,41.0,10.98,47.0,13.42,13.6,47.59359,-54.27349
2023-06-20 16:14:00+00:00,36.0,11.99,36.0,13.17,13.6,47.59359,-54.27349
2023-06-20 16:24:00+00:00,29.0,10.38,29.0,11.3,13.6,47.59359,-54.27349
2023-06-20 16:34:00+00:00,33.0,8.62,34.0,9.25,13.6,47.59359,-54.27349
2023-06-20 16:44:00+00:00,51.0,7.95,47.0,9.01,13.6,47.59359,-54.27349
2023-06-20 16:54:00+00:00,52.0,7.93,52.0,8.96,13.6,47.59359,-54.27349
2023-06-20 17:04:00+00:00,53.0,8.01,48.0,8.97,13.6,47.59359,-54.27349
2023-06-20 17:14:01+00:00,54.0,7.16,48.0,8.02,13.68,47.59359,-54.27349
2023-06-20 17:24:01+00:00,59.0,5.98,59.0,7.22,13.68,47.59359,-54.27349
2023-06-20 17:34:01+00:00,54.0,6.8,55.0,8.17,13.68,47.59359,-54.27349
2023-06-20 17:44:01+00:00,55.0,6.19,53.0,6.92,13.68,47.59359,-54.27349
2023-06-20 17:54:01+00:00,49.0,6.01,48.0,7.12,13.68,47.59359,-54.27349
2023-06-20 18:04:01+00:00,39.0,6.59,41.0,7.25,13.68,47.59359,-54.27349
2023-06-20 18:14:00+00:00,50.0,6.68,45.0,8.04,13.68,47.59359,-54.27349
2023-06-20 18:24:00+00:00,46.0,7.89,39.0,8.86,13.68,47.59359,-54.27349
2023-06-20 18:34:00+00:00,44.0,8.44,47.0,9.03,13.68,47.59359,-54.27349
2023-06-20 18:44:00+00:00,57.0,5.84,58.0,6.65,13.68,47.59359,-54.27349
2023-06-20 18:54:00+00:00,56.0,7.28,57.0,8.05,13.68,47.59359,-54.27349
2023-06-20 19:04:00+00:00,60.0,7.46,59.0,9.17,13.68,47.59359,-54.27349
2023-06-20 19:14:00+00:00,65.0,6.95,63.0,7.77,13.68,47.59359,-54.27349
2023-06-20 19:24:00+00:00,73.0,6.34,67.0,8.13,13.68,47.59359,-54.27349
2023-06-20 19:34:00+00:00,74.0,5.96,69.0,8.32,13.68,47.59359,-54.27349
2023-06-20 19:44:00+00:00,71.0,7.54,73.0,8.49,13.68,47.59359,-54.27349
2023-06-20 19:54:00+00:00,70.0,8.15,70.0,8.71,13.68,47.59359,-54.27349
2023-06-20 20:04:00+00:00,68.0,7.88,65.0,8.45,13.68,47.59359,-54.27349
2023-06-20 20:14:00+00:00,63.0,8.19,64.0,8.88,13.6,47.59359,-54.27349
2023-06-20 20:24:00+00:00,59.0,7.53,60.0,8.6,13.6,47.59359,-54.27349
2023-06-20 20:34:00+00:00,61.0,6.55,69.0,7.52,13.6,47.59359,-54.27349
2023-06-20 20:44:00+00:00,55.0,5.77,56.0,6.91,13.6,47.59359,-54.27349
2023-06-20 20:54:00+00:00,62.0,6.66,60.0,7.68,13.6,47.59359,-54.27349
2023-06-20 21:04:00+00:00,59.0,7.04,59.0,8.33,13.6,47.59359,-54.27349
2023-06-20 21:14:00+00:00,64.0,8.54,64.0,9.32,13.68,47.59359,-54.27349
2023-06-20 21:24:00+00:00,64.0,9.38,66.0,10.35,13.68,47.59359,-54.27349
2023-06-20 21:34:00+00:00,63.0,8.67,65.0,9.92,13.68,47.59359,-54.27349
2023-06-20 21:44:00+00:00,61.0,6.99,59.0,9.07,13.68,47.59359,-54.27349
2023-06-20 21:54:00+00:00,61.0,5.86,64.0,7.27,13.68,47.59359,-54.27349
2023-06-20 22:04:00+00:00,69.0,6.18,70.0,7.36,13.68,47.59359,-54.27349
2023-06-20 22:14:00+00:00,73.0,4.96,65.0,6.41,13.53,47.59359,-54.27349
2023-06-20 22:24:00+00:00,67.0,6.33,69.0,7.12,13.53,47.59359,-54.27349
2023-06-20 22:34:00+00:00,63.0,6.26,57.0,7.49,13.53,47.59359,-54.27349
2023-06-20 22:44:00+00:00,59.0,6.65,56.0,7.52,13.53,47.59359,-54.27349
2023-06-20 22:54:00+00:00,61.0,6.39,61.0,7.17,13.53,47.59359,-54.27349
2023-06-20 23:04:00+00:00,59.0,6.53,60.0,7.19,13.53,47.59359,-54.27349
2023-06-20 23:14:00+00:00,59.0,6.73,58.0,7.46,13.21,47.59359,-54.27349
2023-06-20 23:24:00+00:00,61.0,6.32,61.0,7.14,13.21,47.59359,-54.27349
2023-06-20 23:34:00+00:00,65.0,6.01,67.0,6.91,13.21,47.59359,-54.27349
2023-06-20 23:44:00+00:00,67.0,6.61,68.0,7.34,13.21,47.59359,-54.27349
2023-06-20 23:54:00+00:00,65.0,6.09,63.0,6.87,13.21,47.59359,-54.27349
